Sanford, ME

8:25 AM EST on November 18, 2019 (GMT -0500)
Sanford Regional

Weather History for KSFM - October, 2019

Change the Weather History Date:

Wednesday, October 23, 2019

  Actual Average Record
Temperature  
Mean Temperature 54 °F -  
Max Temperature 64 °F 54 °F 75 °F (2007)
Min Temperature 45 °F 32 °F 17 °F (1997)
Degree Days  
Heating Degree Days 10    
Growing Degree Days 4 (Base 50)    
Moisture  
Dew Point 49 °F    
Average Humidity 84    
Maximum Humidity 100    
Minimum Humidity 44    
Precipitation  
Precipitation 1.19 in - - ()
Sea Level Pressure  
Sea Level Pressure 29.84 in    
Wind  
Wind Speed 7 mph (NW)    
Max Wind Speed 20 mph    
Max Gust Speed 29 mph    
Visibility 8 miles    
Events Rain    
Averages and records for this station are not official NWS values.
T = Trace of Precipitation, MM = Missing Value Source: NWS Daily Summary

Daily Weather History Graph

Daily Weather History Graph

Search for Another Location

Airport or City:

Astronomy

Oct. 23, 2019 Rise Set
Actual Time 7:06 AM EDT 5:47 PM EDT
Civil Twilight 6:37 AM EDT 6:16 PM EDT
Nautical Twilight 6:03 AM EDT 6:49 PM EDT
Astronomical Twilight 5:30 AM EDT 7:22 PM EDT
Moon 1:08 AM EDT (10/23) 3:47 PM EDT (10/23)
Length of Visible Light 11h 39m
Length of Day
10h 41m
Waning Crescent, 27% of the Moon is Illuminated
Oct 23
Waning Crescent
Oct 27
New
Nov 4
First Quarter
Nov 12
Full
Nov 19
Last Quarter

Hourly Weather History & Observations

Time (EDT) Temp. Windchill Dew Point Humidity Pressure Visibility Wind Dir Wind Speed Gust Speed Precip Events Conditions
12:44 AM 51.8 °F - 51.8 °F 100% 29.93 in 2.5 mi ENE 6.9 mph - 0.07 in Rain Light Rain
12:54 AM 51.8 °F - 51.8 °F 100% 29.92 in 3.0 mi ENE 6.9 mph - 0.08 in Rain Light Rain
12:56 AM 52.0 °F - 52.0 °F 100% 29.93 in 3.0 mi NE 6.9 mph - 0.08 in Rain Light Rain
1:56 AM 52.0 °F - 52.0 °F 100% 29.90 in 4.0 mi NNE 5.8 mph - 0.08 in Rain Rain
2:26 AM 51.8 °F - 51.8 °F 100% 29.87 in 2.5 mi NNE 5.8 mph - 0.05 in Rain Rain
2:37 AM 51.8 °F - 51.8 °F 100% 29.86 in 5.0 mi North 9.2 mph - 0.08 in Rain Light Rain
2:56 AM 52.0 °F - 52.0 °F 100% 29.89 in 3.0 mi WNW 4.6 mph - 0.11 in Rain Rain
3:05 AM 51.8 °F - 51.8 °F 100% 29.86 in 2.5 mi Variable 4.6 mph - 0.02 in Rain Light Rain
3:53 AM 51.8 °F - 51.8 °F 100% 29.84 in 8.0 mi NNE 6.9 mph - 0.22 in Rain Light Rain
3:56 AM 52.0 °F - 52.0 °F 100% 29.85 in 6.0 mi NNE 5.8 mph - 0.23 in Rain Rain
4:56 AM 52.0 °F - 52.0 °F 100% 29.82 in 6.0 mi NNE 6.9 mph - 0.10 in Rain Light Rain
5:56 AM 52.0 °F - 52.0 °F 100% 29.79 in 8.0 mi NNE 9.2 mph - 0.05 in Rain Light Rain
6:56 AM 52.0 °F - 52.0 °F 100% 29.76 in 5.0 mi NNE 8.1 mph - 0.07 in Rain Light Rain
7:56 AM 52.0 °F - 51.1 °F 97% 29.78 in 10.0 mi NW 4.6 mph - 0.30 in Rain Light Rain
8:56 AM 52.0 °F - 50.0 °F 93% 29.78 in 8.0 mi WNW 4.6 mph - 0.03 in Rain Rain
9:23 AM 51.8 °F - 51.8 °F 100% 29.76 in 9.0 mi NNW 5.8 mph - 0.10 in Rain Light Rain
9:27 AM 51.8 °F - 51.8 °F 100% 29.77 in 10.0 mi Variable 3.5 mph - 0.10 in Rain Light Rain
9:39 AM 51.8 °F - 51.8 °F 100% 29.77 in 6.0 mi WNW 5.8 mph - 0.12 in Rain Rain
9:54 AM 51.8 °F - 50.0 °F 94% 29.76 in 8.0 mi NNW 6.9 mph - 0.14 in Rain Light Rain
9:56 AM 51.1 °F - 51.1 °F 100% 29.78 in 9.0 mi NW 5.8 mph - 0.14 in Rain Light Rain
10:17 AM 53.6 °F - 51.8 °F 94% 29.73 in 10.0 mi North 10.4 mph - 0.00 in Rain Light Rain
10:36 AM 53.6 °F - 51.8 °F 94% 29.74 in 10.0 mi NNW 6.9 mph - 0.00 in   Mostly Cloudy
10:56 AM 55.9 °F - 53.1 °F 90% 29.76 in 10.0 mi NW 6.9 mph - 0.00 in   Overcast
11:22 AM 57.2 °F - 53.6 °F 88% 29.75 in 10.0 mi WNW 9.2 mph - N/A   Overcast
11:56 AM 57.0 °F - 52.0 °F 83% 29.78 in 10.0 mi WNW 6.9 mph - N/A   Overcast
12:21 PM 59.0 °F - 53.6 °F 82% 29.76 in 10.0 mi West 10.4 mph - N/A   Overcast
12:56 PM 63.0 °F - 53.1 °F 70% 29.75 in 10.0 mi WNW 11.5 mph 16.1 mph N/A   Scattered Clouds
1:07 PM 64.4 °F - 53.6 °F 68% 29.75 in 10.0 mi West 11.5 mph 19.6 mph N/A   Mostly Cloudy
1:22 PM 64.4 °F - 51.8 °F 64% 29.74 in 10.0 mi West 15.0 mph 21.9 mph N/A   Scattered Clouds
1:56 PM 64.9 °F - 46.0 °F 50% 29.76 in 10.0 mi West 19.6 mph 28.8 mph N/A   Partly Cloudy
2:56 PM 64.0 °F - 44.1 °F 48% 29.79 in 10.0 mi WNW 13.8 mph 24.2 mph N/A   Clear
3:56 PM 64.0 °F - 43.0 °F 46% 29.82 in 10.0 mi West 15.0 mph 23.0 mph N/A   Clear
4:56 PM 62.1 °F - 39.9 °F 44% 29.85 in 10.0 mi WNW 8.1 mph - N/A   Clear
5:56 PM 57.0 °F - 41.0 °F 55% 29.90 in 10.0 mi WSW 4.6 mph - N/A   Clear
6:56 PM 55.9 °F - 39.0 °F 53% 29.94 in 10.0 mi West 9.2 mph - N/A   Clear
7:56 PM 54.0 °F - 39.0 °F 57% 29.97 in 10.0 mi WSW 6.9 mph - N/A   Clear
8:56 PM 51.1 °F - 37.9 °F 61% 30.01 in 10.0 mi WSW 8.1 mph - N/A   Clear
9:56 PM 50.0 °F - 37.9 °F 63% 30.04 in 10.0 mi SW 5.8 mph - N/A   Clear
10:56 PM 45.0 °F 41.2 °F 37.0 °F 74% 30.06 in 10.0 mi SW 6.9 mph - N/A   Clear
11:56 PM 45.0 °F 41.8 °F 37.0 °F 74% 30.07 in 10.0 mi WSW 5.8 mph - N/A   Clear